owner,sensor,date,latitude,longitude,vertical_datum,sea_water_practical_salinity,qcFlag 
TCOON,ioos:station:TCOON:148:1,2013-03-01T00:00:00Z,27.9799,-97.0288,0.0,29.7,1111122 
TCOON,ioos:station:TCOON:148:1,2013-03-01T01:00:00Z,27.9799,-97.0288,0.0,29.7,1111122 
TCOON,ioos:station:TCOON:148:1,2013-03-01T02:00:00Z,27.9799,-97.0288,0.0,29.8,1111122 
TCOON,ioos:station:TCOON:148:1,2013-03-01T03:00:00Z,27.9799,-97.0288,0.0,29.8,1111122 
TCOON,ioos:station:TCOON:148:1,2013-03-01T04:00:00Z,27.9799,-97.0288,0.0,29.8,1111122 
TCOON,ioos:station:TCOON:148:1,2013-03-01T05:00:00Z,27.9799,-97.0288,0.0,29.8,1111122 
TCOON,ioos:station:TCOON:148:1,2013-03-01T06:00:00Z,27.9799,-97.0288,0.0,29.7,1111122 
TCOON,ioos:station:TCOON:148:1,2013-03-01T07:00:00Z,27.9799,-97.0288,0.0,29.7,1111122 
TCOON,ioos:station:TCOON:148:1,2013-03-01T08:00:00Z,27.9799,-97.0288,0.0,29.7,1111122 
TCOON,ioos:station:TCOON:148:1,2013-03-01T09:00:00Z,27.9799,-97.0288,0.0,29.7,1111122 
TCOON,ioos:station:TCOON:148:1,2013-03-01T10:00:00Z,27.9799,-97.0288,0.0,29.6,1111122 
TCOON,ioos:station:TCOON:148:1,2013-03-01T11:00:00Z,27.9799,-97.0288,0.0,29.6,1111122 
TCOON,ioos:station:TCOON:148:1,2013-03-01T12:00:00Z,27.9799,-97.0288,0.0,29.6,1111122 
TCOON,ioos:station:TCOON:148:1,2013-03-01T13:00:00Z,27.9799,-97.0288,0.0,29.7,1111122 
TCOON,ioos:station:TCOON:148:1,2013-03-01T14:00:00Z,27.9799,-97.0288,0.0,29.7,1111122 
TCOON,ioos:station:TCOON:148:1,2013-03-01T15:00:00Z,27.9799,-97.0288,0.0,29.8,1111122 
TCOON,ioos:station:TCOON:148:1,2013-03-01T16:00:00Z,27.9799,-97.0288,0.0,29.8,1111122 
TCOON,ioos:station:TCOON:148:1,2013-03-01T17:00:00Z,27.9799,-97.0288,0.0,29.9,1111122 
TCOON,ioos:station:TCOON:148:1,2013-03-01T18:00:00Z,27.9799,-97.0288,0.0,29.9,1111122 
TCOON,ioos:station:TCOON:148:1,2013-03-01T19:00:00Z,27.9799,-97.0288,0.0,29.9,1111122 
TCOON,ioos:station:TCOON:148:1,2013-03-01T20:00:00Z,27.9799,-97.0288,0.0,29.9,1111122 
TCOON,ioos:station:TCOON:148:1,2013-03-01T21:00:00Z,27.9799,-97.0288,0.0,29.9,1111122 
TCOON,ioos:station:TCOON:148:1,2013-03-01T22:00:00Z,27.9799,-97.0288,0.0,30.0,1111122 
TCOON,ioos:station:TCOON:148:1,2013-03-01T23:00:00Z,27.9799,-97.0288,0.0,30.0,1111122 
TCOON,ioos:station:TCOON:148:1,2013-03-02T00:00:00Z,27.9799,-97.0288,0.0,30.0,1111122 
TCOON,ioos:station:TCOON:148:1,2013-03-02T01:00:00Z,27.9799,-97.0288,0.0,30.0,1111122 
TCOON,ioos:station:TCOON:148:1,2013-03-02T02:00:00Z,27.9799,-97.0288,0.0,29.4,1111122 
TCOON,ioos:station:TCOON:148:1,2013-03-02T03:00:00Z,27.9799,-97.0288,0.0,30.1,1111122 
TCOON,ioos:station:TCOON:148:1,2013-03-02T04:00:00Z,27.9799,-97.0288,0.0,30.1,1111122 
TCOON,ioos:station:TCOON:148:1,2013-03-02T05:00:00Z,27.9799,-97.0288,0.0,30.0,1111122 
TCOON,ioos:station:TCOON:148:1,2013-03-02T06:00:00Z,27.9799,-97.0288,0.0,30.0,1111122 
TCOON,ioos:station:TCOON:148:1,2013-03-02T07:00:00Z,27.9799,-97.0288,0.0,29.9,1111122 
TCOON,ioos:station:TCOON:148:1,2013-03-02T08:00:00Z,27.9799,-97.0288,0.0,29.8,1111122 
TCOON,ioos:station:TCOON:148:1,2013-03-02T09:00:00Z,27.9799,-97.0288,0.0,29.1,1111122 
TCOON,ioos:station:TCOON:148:1,2013-03-02T10:00:00Z,27.9799,-97.0288,0.0,29.3,1111122 
TCOON,ioos:station:TCOON:148:1,2013-03-02T11:00:00Z,27.9799,-97.0288,0.0,29.3,1111122 
TCOON,ioos:station:TCOON:148:1,2013-03-02T12:00:00Z,27.9799,-97.0288,0.0,29.8,1111122 
TCOON,ioos:station:TCOON:148:1,2013-03-02T13:00:00Z,27.9799,-97.0288,0.0,29.9,1111122 
TCOON,ioos:station:TCOON:148:1,2013-03-02T14:00:00Z,27.9799,-97.0288,0.0,29.9,1111122 
TCOON,ioos:station:TCOON:148:1,2013-03-02T15:00:00Z,27.9799,-97.0288,0.0,29.9,1111122 
TCOON,ioos:station:TCOON:148:1,2013-03-02T16:00:00Z,27.9799,-97.0288,0.0,30.0,1111122 
TCOON,ioos:station:TCOON:148:1,2013-03-02T17:00:00Z,27.9799,-97.0288,0.0,30.1,1111122 
TCOON,ioos:station:TCOON:148:1,2013-03-02T18:00:00Z,27.9799,-97.0288,0.0,30.1,1111122 
TCOON,ioos:station:TCOON:148:1,2013-03-02T19:00:00Z,27.9799,-97.0288,0.0,30.2,1111122 
TCOON,ioos:station:TCOON:148:1,2013-03-02T20:00:00Z,27.9799,-97.0288,0.0,30.2,1111122 
TCOON,ioos:station:TCOON:148:1,2013-03-02T21:00:00Z,27.9799,-97.0288,0.0,30.2,1111122 
TCOON,ioos:station:TCOON:148:1,2013-03-02T22:00:00Z,27.9799,-97.0288,0.0,30.2,1111122 
TCOON,ioos:station:TCOON:148:1,2013-03-02T23:00:00Z,27.9799,-97.0288,0.0,30.2,1111122 
TCOON,ioos:station:TCOON:148:1,2013-03-03T00:00:00Z,27.9799,-97.0288,0.0,30.2,1111122 
TCOON,ioos:station:TCOON:148:1,2013-03-03T01:00:00Z,27.9799,-97.0288,0.0,30.1,1111122 
TCOON,ioos:station:TCOON:148:1,2013-03-03T02:00:00Z,27.9799,-97.0288,0.0,30.1,1111122 
TCOON,ioos:station:TCOON:148:1,2013-03-03T03:00:00Z,27.9799,-97.0288,0.0,30.1,1111122 
TCOON,ioos:station:TCOON:148:1,2013-03-03T04:00:00Z,27.9799,-97.0288,0.0,30.1,1111122 
TCOON,ioos:station:TCOON:148:1,2013-03-03T05:00:00Z,27.9799,-97.0288,0.0,30.1,1111122 
TCOON,ioos:station:TCOON:148:1,2013-03-03T06:00:00Z,27.9799,-97.0288,0.0,30.2,1111122 
TCOON,ioos:station:TCOON:148:1,2013-03-03T07:00:00Z,27.9799,-97.0288,0.0,30.3,1111122 
TCOON,ioos:station:TCOON:148:1,2013-03-03T08:00:00Z,27.9799,-97.0288,0.0,29.7,1111122 
TCOON,ioos:station:TCOON:148:1,2013-03-03T09:00:00Z,27.9799,-97.0288,0.0,29.8,1111122 
TCOON,ioos:station:TCOON:148:1,2013-03-03T10:00:00Z,27.9799,-97.0288,0.0,30.2,1111122 
TCOON,ioos:station:TCOON:148:1,2013-03-03T11:00:00Z,27.9799,-97.0288,0.0,29.7,1111122 
TCOON,ioos:station:TCOON:148:1,2013-03-03T12:00:00Z,27.9799,-97.0288,0.0,29.6,1111122 
TCOON,ioos:station:TCOON:148:1,2013-03-03T13:00:00Z,27.9799,-97.0288,0.0,29.6,1111122 
TCOON,ioos:station:TCOON:148:1,2013-03-03T14:00:00Z,27.9799,-97.0288,0.0,29.6,1111122 
TCOON,ioos:station:TCOON:148:1,2013-03-03T15:00:00Z,27.9799,-97.0288,0.0,29.6,1111122 
TCOON,ioos:station:TCOON:148:1,2013-03-03T16:00:00Z,27.9799,-97.0288,0.0,29.6,1111122 
TCOON,ioos:station:TCOON:148:1,2013-03-03T17:00:00Z,27.9799,-97.0288,0.0,29.6,1111122 
TCOON,ioos:station:TCOON:148:1,2013-03-03T18:00:00Z,27.9799,-97.0288,0.0,29.5,1111122 
TCOON,ioos:station:TCOON:148:1,2013-03-03T19:00:00Z,27.9799,-97.0288,0.0,30.2,1111122 
TCOON,ioos:station:TCOON:148:1,2013-03-03T20:00:00Z,27.9799,-97.0288,0.0,30.2,1111122 
TCOON,ioos:station:TCOON:148:1,2013-03-03T21:00:00Z,27.9799,-97.0288,0.0,30.2,1111122 
TCOON,ioos:station:TCOON:148:1,2013-03-03T22:00:00Z,27.9799,-97.0288,0.0,30.2,1111122 
TCOON,ioos:station:TCOON:148:1,2013-03-03T23:00:00Z,27.9799,-97.0288,0.0,30.1,1111122 
TCOON,ioos:station:TCOON:148:1,2013-03-04T00:00:00Z,27.9799,-97.0288,0.0,30.2,1111122 
TCOON,ioos:station:TCOON:148:1,2013-03-04T01:00:00Z,27.9799,-97.0288,0.0,30.2,1111122 
TCOON,ioos:station:TCOON:148:1,2013-03-04T02:00:00Z,27.9799,-97.0288,0.0,30.2,1111122 
TCOON,ioos:station:TCOON:148:1,2013-03-04T03:00:00Z,27.9799,-97.0288,0.0,29.9,1111122 
TCOON,ioos:station:TCOON:148:1,2013-03-04T04:00:00Z,27.9799,-97.0288,0.0,30.3,1111122 
TCOON,ioos:station:TCOON:148:1,2013-03-04T05:00:00Z,27.9799,-97.0288,0.0,29.4,1111122 
TCOON,ioos:station:TCOON:148:1,2013-03-04T06:00:00Z,27.9799,-97.0288,0.0,30.0,1111122 
TCOON,ioos:station:TCOON:148:1,2013-03-04T07:00:00Z,27.9799,-97.0288,0.0,29.8,1111122 
TCOON,ioos:station:TCOON:148:1,2013-03-04T08:00:00Z,27.9799,-97.0288,0.0,29.3,1111122 
TCOON,ioos:station:TCOON:148:1,2013-03-04T09:00:00Z,27.9799,-97.0288,0.0,29.2,1111122 
TCOON,ioos:station:TCOON:148:1,2013-03-04T10:00:00Z,27.9799,-97.0288,0.0,29.3,1111122 
TCOON,ioos:station:TCOON:148:1,2013-03-04T11:00:00Z,27.9799,-97.0288,0.0,30.1,1111122 
TCOON,ioos:station:TCOON:148:1,2013-03-04T12:00:00Z,27.9799,-97.0288,0.0,30.1,1111122 
TCOON,ioos:station:TCOON:148:1,2013-03-04T13:00:00Z,27.9799,-97.0288,0.0,29.4,1111122 
TCOON,ioos:station:TCOON:148:1,2013-03-04T14:00:00Z,27.9799,-97.0288,0.0,29.5,1111122 
TCOON,ioos:station:TCOON:148:1,2013-03-04T15:00:00Z,27.9799,-97.0288,0.0,29.7,1111122 
TCOON,ioos:station:TCOON:148:1,2013-03-04T16:00:00Z,27.9799,-97.0288,0.0,30.2,1111122 
TCOON,ioos:station:TCOON:148:1,2013-03-04T17:00:00Z,27.9799,-97.0288,0.0,30.2,1111122 
TCOON,ioos:station:TCOON:148:1,2013-03-04T18:00:00Z,27.9799,-97.0288,0.0,30.8,1111122 
TCOON,ioos:station:TCOON:148:1,2013-03-04T19:00:00Z,27.9799,-97.0288,0.0,32.0,1111122 
TCOON,ioos:station:TCOON:148:1,2013-03-04T20:00:00Z,27.9799,-97.0288,0.0,32.5,1111122 
TCOON,ioos:station:TCOON:148:1,2013-03-04T21:00:00Z,27.9799,-97.0288,0.0,31.6,1111122 
TCOON,ioos:station:TCOON:148:1,2013-03-04T22:00:00Z,27.9799,-97.0288,0.0,31.5,1111122 
TCOON,ioos:station:TCOON:148:1,2013-03-04T23:00:00Z,27.9799,-97.0288,0.0,32.6,1111122 
TCOON,ioos:station:TCOON:148:1,2013-03-05T00:00:00Z,27.9799,-97.0288,0.0,32.5,1111122 
TCOON,ioos:station:TCOON:148:1,2013-03-05T01:00:00Z,27.9799,-97.0288,0.0,32.5,1111122 
TCOON,ioos:station:TCOON:148:1,2013-03-05T02:00:00Z,27.9799,-97.0288,0.0,32.5,1111122 
TCOON,ioos:station:TCOON:148:1,2013-03-05T03:00:00Z,27.9799,-97.0288,0.0,32.8,1111122 
TCOON,ioos:station:TCOON:148:1,2013-03-05T04:00:00Z,27.9799,-97.0288,0.0,33.4,1111122 
TCOON,ioos:station:TCOON:148:1,2013-03-05T05:00:00Z,27.9799,-97.0288,0.0,33.5,1111122 
TCOON,ioos:station:TCOON:148:1,2013-03-05T06:00:00Z,27.9799,-97.0288,0.0,33.5,1111122 
TCOON,ioos:station:TCOON:148:1,2013-03-05T07:00:00Z,27.9799,-97.0288,0.0,33.4,1111122 
TCOON,ioos:station:TCOON:148:1,2013-03-05T08:00:00Z,27.9799,-97.0288,0.0,32.7,1111122 
TCOON,ioos:station:TCOON:148:1,2013-03-05T09:00:00Z,27.9799,-97.0288,0.0,32.6,1111122 
TCOON,ioos:station:TCOON:148:1,2013-03-05T10:00:00Z,27.9799,-97.0288,0.0,31.8,1111122 
TCOON,ioos:station:TCOON:148:1,2013-03-05T11:00:00Z,27.9799,-97.0288,0.0,32.1,1111122 
TCOON,ioos:station:TCOON:148:1,2013-03-05T12:00:00Z,27.9799,-97.0288,0.0,31.9,1111122 
TCOON,ioos:station:TCOON:148:1,2013-03-05T13:00:00Z,27.9799,-97.0288,0.0,32.4,1111122 
TCOON,ioos:station:TCOON:148:1,2013-03-05T14:00:00Z,27.9799,-97.0288,0.0,31.6,1111122 
TCOON,ioos:station:TCOON:148:1,2013-03-05T15:00:00Z,27.9799,-97.0288,0.0,30.7,1111122 
TCOON,ioos:station:TCOON:148:1,2013-03-05T16:00:00Z,27.9799,-97.0288,0.0,31.0,1111122 
TCOON,ioos:station:TCOON:148:1,2013-03-05T17:00:00Z,27.9799,-97.0288,0.0,31.0,1111122 
TCOON,ioos:station:TCOON:148:1,2013-03-05T18:00:00Z,27.9799,-97.0288,0.0,30.9,1111122 
TCOON,ioos:station:TCOON:148:1,2013-03-05T19:00:00Z,27.9799,-97.0288,0.0,30.8,1111122 
TCOON,ioos:station:TCOON:148:1,2013-03-05T20:00:00Z,27.9799,-97.0288,0.0,30.0,1111122 
TCOON,ioos:station:TCOON:148:1,2013-03-05T21:00:00Z,27.9799,-97.0288,0.0,30.7,1111122 
TCOON,ioos:station:TCOON:148:1,2013-03-05T22:00:00Z,27.9799,-97.0288,0.0,30.7,1111122 
TCOON,ioos:station:TCOON:148:1,2013-03-05T23:00:00Z,27.9799,-97.0288,0.0,30.7,1111122 
TCOON,ioos:station:TCOON:148:1,2013-03-06T00:00:00Z,27.9799,-97.0288,0.0,30.4,1111122 
TCOON,ioos:station:TCOON:148:1,2013-03-06T01:00:00Z,27.9799,-97.0288,0.0,29.9,1111122 
TCOON,ioos:station:TCOON:148:1,2013-03-06T02:00:00Z,27.9799,-97.0288,0.0,30.8,1111122 
TCOON,ioos:station:TCOON:148:1,2013-03-06T03:00:00Z,27.9799,-97.0288,0.0,30.9,1111122 
TCOON,ioos:station:TCOON:148:1,2013-03-06T04:00:00Z,27.9799,-97.0288,0.0,31.0,1111122 
TCOON,ioos:station:TCOON:148:1,2013-03-06T05:00:00Z,27.9799,-97.0288,0.0,31.0,1111122 
TCOON,ioos:station:TCOON:148:1,2013-03-06T06:00:00Z,27.9799,-97.0288,0.0,30.8,1111122 
TCOON,ioos:station:TCOON:148:1,2013-03-06T07:00:00Z,27.9799,-97.0288,0.0,30.6,1111122 
TCOON,ioos:station:TCOON:148:1,2013-03-06T08:00:00Z,27.9799,-97.0288,0.0,30.3,1111122 
TCOON,ioos:station:TCOON:148:1,2013-03-06T09:00:00Z,27.9799,-97.0288,0.0,30.2,1111122 
TCOON,ioos:station:TCOON:148:1,2013-03-06T10:00:00Z,27.9799,-97.0288,0.0,30.1,1111122 
TCOON,ioos:station:TCOON:148:1,2013-03-06T11:00:00Z,27.9799,-97.0288,0.0,30.1,1111122 
TCOON,ioos:station:TCOON:148:1,2013-03-06T12:00:00Z,27.9799,-97.0288,0.0,30.1,1111122 
TCOON,ioos:station:TCOON:148:1,2013-03-06T13:00:00Z,27.9799,-97.0288,0.0,30.1,1111122 
TCOON,ioos:station:TCOON:148:1,2013-03-06T14:00:00Z,27.9799,-97.0288,0.0,30.1,1111122 
TCOON,ioos:station:TCOON:148:1,2013-03-06T15:00:00Z,27.9799,-97.0288,0.0,30.1,1111122 
TCOON,ioos:station:TCOON:148:1,2013-03-06T16:00:00Z,27.9799,-97.0288,0.0,30.7,1111122 
TCOON,ioos:station:TCOON:148:1,2013-03-06T17:00:00Z,27.9799,-97.0288,0.0,30.7,1111122 
TCOON,ioos:station:TCOON:148:1,2013-03-06T18:00:00Z,27.9799,-97.0288,0.0,30.6,1111122 
TCOON,ioos:station:TCOON:148:1,2013-03-06T19:00:00Z,27.9799,-97.0288,0.0,30.7,1111122 
TCOON,ioos:station:TCOON:148:1,2013-03-06T20:00:00Z,27.9799,-97.0288,0.0,30.8,1111122 
TCOON,ioos:station:TCOON:148:1,2013-03-06T21:00:00Z,27.9799,-97.0288,0.0,30.8,1111122 
TCOON,ioos:station:TCOON:148:1,2013-03-06T22:00:00Z,27.9799,-97.0288,0.0,30.7,1111122 
TCOON,ioos:station:TCOON:148:1,2013-03-06T23:00:00Z,27.9799,-97.0288,0.0,30.6,1111122 
TCOON,ioos:station:TCOON:148:1,2013-03-07T00:00:00Z,27.9799,-97.0288,0.0,30.6,1111122 
TCOON,ioos:station:TCOON:148:1,2013-03-07T01:00:00Z,27.9799,-97.0288,0.0,30.7,1111122 
TCOON,ioos:station:TCOON:148:1,2013-03-07T02:00:00Z,27.9799,-97.0288,0.0,30.6,1111122 
TCOON,ioos:station:TCOON:148:1,2013-03-07T03:00:00Z,27.9799,-97.0288,0.0,30.6,1111122 
TCOON,ioos:station:TCOON:148:1,2013-03-07T04:00:00Z,27.9799,-97.0288,0.0,30.8,1111122 
TCOON,ioos:station:TCOON:148:1,2013-03-07T05:00:00Z,27.9799,-97.0288,0.0,30.9,1111122 
TCOON,ioos:station:TCOON:148:1,2013-03-07T06:00:00Z,27.9799,-97.0288,0.0,31.0,1111122 
TCOON,ioos:station:TCOON:148:1,2013-03-07T07:00:00Z,27.9799,-97.0288,0.0,31.7,1111122 
TCOON,ioos:station:TCOON:148:1,2013-03-07T08:00:00Z,27.9799,-97.0288,0.0,31.8,1111122 
TCOON,ioos:station:TCOON:148:1,2013-03-07T09:00:00Z,27.9799,-97.0288,0.0,31.7,1111122 
TCOON,ioos:station:TCOON:148:1,2013-03-07T10:00:00Z,27.9799,-97.0288,0.0,31.5,1111122 
TCOON,ioos:station:TCOON:148:1,2013-03-07T11:00:00Z,27.9799,-97.0288,0.0,31.3,1111122 
TCOON,ioos:station:TCOON:148:1,2013-03-07T12:00:00Z,27.9799,-97.0288,0.0,31.6,1111122 
TCOON,ioos:station:TCOON:148:1,2013-03-07T13:00:00Z,27.9799,-97.0288,0.0,31.8,1111122 
TCOON,ioos:station:TCOON:148:1,2013-03-07T14:00:00Z,27.9799,-97.0288,0.0,31.6,1111122 
TCOON,ioos:station:TCOON:148:1,2013-03-07T15:00:00Z,27.9799,-97.0288,0.0,31.9,1111122 
TCOON,ioos:station:TCOON:148:1,2013-03-07T16:00:00Z,27.9799,-97.0288,0.0,32.0,1111122 
TCOON,ioos:station:TCOON:148:1,2013-03-07T17:00:00Z,27.9799,-97.0288,0.0,32.0,1111122 
TCOON,ioos:station:TCOON:148:1,2013-03-07T18:00:00Z,27.9799,-97.0288,0.0,32.4,1111122 
TCOON,ioos:station:TCOON:148:1,2013-03-07T19:00:00Z,27.9799,-97.0288,0.0,31.7,1111122 
TCOON,ioos:station:TCOON:148:1,2013-03-07T20:00:00Z,27.9799,-97.0288,0.0,31.3,1111122 
TCOON,ioos:station:TCOON:148:1,2013-03-07T21:00:00Z,27.9799,-97.0288,0.0,31.3,1111122 
TCOON,ioos:station:TCOON:148:1,2013-03-07T22:00:00Z,27.9799,-97.0288,0.0,31.3,1111122 
TCOON,ioos:station:TCOON:148:1,2013-03-07T23:00:00Z,27.9799,-97.0288,0.0,31.5,1111122 
TCOON,ioos:station:TCOON:148:1,2013-03-08T00:00:00Z,27.9799,-97.0288,0.0,31.5,1111122 
TCOON,ioos:station:TCOON:148:1,2013-03-08T01:00:00Z,27.9799,-97.0288,0.0,31.7,1111122 
TCOON,ioos:station:TCOON:148:1,2013-03-08T02:00:00Z,27.9799,-97.0288,0.0,31.9,1111122 
TCOON,ioos:station:TCOON:148:1,2013-03-08T03:00:00Z,27.9799,-97.0288,0.0,32.0,1111122 
TCOON,ioos:station:TCOON:148:1,2013-03-08T04:00:00Z,27.9799,-97.0288,0.0,33.5,1111122 
TCOON,ioos:station:TCOON:148:1,2013-03-08T05:00:00Z,27.9799,-97.0288,0.0,33.8,1111122 
TCOON,ioos:station:TCOON:148:1,2013-03-08T06:00:00Z,27.9799,-97.0288,0.0,33.9,1111122 
TCOON,ioos:station:TCOON:148:1,2013-03-08T07:00:00Z,27.9799,-97.0288,0.0,34.0,1111122 
TCOON,ioos:station:TCOON:148:1,2013-03-08T08:00:00Z,27.9799,-97.0288,0.0,34.1,1111122 
TCOON,ioos:station:TCOON:148:1,2013-03-08T09:00:00Z,27.9799,-97.0288,0.0,34.1,1111122 
TCOON,ioos:station:TCOON:148:1,2013-03-08T10:00:00Z,27.9799,-97.0288,0.0,34.1,1111122 
TCOON,ioos:station:TCOON:148:1,2013-03-08T11:00:00Z,27.9799,-97.0288,0.0,34.1,1111122 
TCOON,ioos:station:TCOON:148:1,2013-03-08T12:00:00Z,27.9799,-97.0288,0.0,34.0,1111122 
TCOON,ioos:station:TCOON:148:1,2013-03-08T13:00:00Z,27.9799,-97.0288,0.0,33.9,1111122 
TCOON,ioos:station:TCOON:148:1,2013-03-08T14:00:00Z,27.9799,-97.0288,0.0,33.8,1111122 
TCOON,ioos:station:TCOON:148:1,2013-03-08T15:00:00Z,27.9799,-97.0288,0.0,33.5,1111122 
TCOON,ioos:station:TCOON:148:1,2013-03-08T16:00:00Z,27.9799,-97.0288,0.0,33.3,1111122 
TCOON,ioos:station:TCOON:148:1,2013-03-08T17:00:00Z,27.9799,-97.0288,0.0,32.8,1111122 
TCOON,ioos:station:TCOON:148:1,2013-03-08T18:00:00Z,27.9799,-97.0288,0.0,32.8,1111122 
TCOON,ioos:station:TCOON:148:1,2013-03-08T19:00:00Z,27.9799,-97.0288,0.0,32.9,1111122 
TCOON,ioos:station:TCOON:148:1,2013-03-08T20:00:00Z,27.9799,-97.0288,0.0,32.5,1111122 
TCOON,ioos:station:TCOON:148:1,2013-03-08T21:00:00Z,27.9799,-97.0288,0.0,32.5,1111122 
TCOON,ioos:station:TCOON:148:1,2013-03-08T22:00:00Z,27.9799,-97.0288,0.0,32.6,1111122 
TCOON,ioos:station:TCOON:148:1,2013-03-08T23:00:00Z,27.9799,-97.0288,0.0,32.5,1111122 
TCOON,ioos:station:TCOON:148:1,2013-03-09T00:00:00Z,27.9799,-97.0288,0.0,32.5,1111122 
TCOON,ioos:station:TCOON:148:1,2013-03-09T01:00:00Z,27.9799,-97.0288,0.0,32.4,1111122 
TCOON,ioos:station:TCOON:148:1,2013-03-09T02:00:00Z,27.9799,-97.0288,0.0,32.3,1111122 
TCOON,ioos:station:TCOON:148:1,2013-03-09T03:00:00Z,27.9799,-97.0288,0.0,32.4,1111122 
TCOON,ioos:station:TCOON:148:1,2013-03-09T04:00:00Z,27.9799,-97.0288,0.0,32.7,1111122 
TCOON,ioos:station:TCOON:148:1,2013-03-09T05:00:00Z,27.9799,-97.0288,0.0,33.0,1111122 
TCOON,ioos:station:TCOON:148:1,2013-03-09T06:00:00Z,27.9799,-97.0288,0.0,32.9,1111122 
TCOON,ioos:station:TCOON:148:1,2013-03-09T07:00:00Z,27.9799,-97.0288,0.0,33.1,1111122 
TCOON,ioos:station:TCOON:148:1,2013-03-09T08:00:00Z,27.9799,-97.0288,0.0,33.7,1111122 
TCOON,ioos:station:TCOON:148:1,2013-03-09T09:00:00Z,27.9799,-97.0288,0.0,34.1,1111122 
TCOON,ioos:station:TCOON:148:1,2013-03-09T10:00:00Z,27.9799,-97.0288,0.0,34.2,1111122 
TCOON,ioos:station:TCOON:148:1,2013-03-09T11:00:00Z,27.9799,-97.0288,0.0,34.3,1111122 
TCOON,ioos:station:TCOON:148:1,2013-03-09T12:00:00Z,27.9799,-97.0288,0.0,34.3,1111122 
TCOON,ioos:station:TCOON:148:1,2013-03-09T13:00:00Z,27.9799,-97.0288,0.0,34.3,1111122 
TCOON,ioos:station:TCOON:148:1,2013-03-09T14:00:00Z,27.9799,-97.0288,0.0,34.2,1111122 
TCOON,ioos:station:TCOON:148:1,2013-03-09T15:00:00Z,27.9799,-97.0288,0.0,34.0,1111122 
TCOON,ioos:station:TCOON:148:1,2013-03-09T16:00:00Z,27.9799,-97.0288,0.0,33.5,1111122 
TCOON,ioos:station:TCOON:148:1,2013-03-09T17:00:00Z,27.9799,-97.0288,0.0,33.2,1111122 
TCOON,ioos:station:TCOON:148:1,2013-03-09T18:00:00Z,27.9799,-97.0288,0.0,33.2,1111122 
TCOON,ioos:station:TCOON:148:1,2013-03-09T19:00:00Z,27.9799,-97.0288,0.0,33.2,1111122 
TCOON,ioos:station:TCOON:148:1,2013-03-09T20:00:00Z,27.9799,-97.0288,0.0,33.6,1111122 
TCOON,ioos:station:TCOON:148:1,2013-03-09T21:00:00Z,27.9799,-97.0288,0.0,34.3,1111122 
TCOON,ioos:station:TCOON:148:1,2013-03-09T22:00:00Z,27.9799,-97.0288,0.0,34.5,1111122 
TCOON,ioos:station:TCOON:148:1,2013-03-09T23:00:00Z,27.9799,-97.0288,0.0,34.7,1111122 
TCOON,ioos:station:TCOON:148:1,2013-03-10T00:00:00Z,27.9799,-97.0288,0.0,34.5,1111122 
TCOON,ioos:station:TCOON:148:1,2013-03-10T01:00:00Z,27.9799,-97.0288,0.0,34.3,1111122 
TCOON,ioos:station:TCOON:148:1,2013-03-10T02:00:00Z,27.9799,-97.0288,0.0,34.1,1111122 
TCOON,ioos:station:TCOON:148:1,2013-03-10T03:00:00Z,27.9799,-97.0288,0.0,34.1,1111122 
TCOON,ioos:station:TCOON:148:1,2013-03-10T04:00:00Z,27.9799,-97.0288,0.0,33.9,1111122 
TCOON,ioos:station:TCOON:148:1,2013-03-10T05:00:00Z,27.9799,-97.0288,0.0,33.9,1111122 
TCOON,ioos:station:TCOON:148:1,2013-03-10T06:00:00Z,27.9799,-97.0288,0.0,33.9,1111122 
TCOON,ioos:station:TCOON:148:1,2013-03-10T07:00:00Z,27.9799,-97.0288,0.0,34.3,1111122 
TCOON,ioos:station:TCOON:148:1,2013-03-10T08:00:00Z,27.9799,-97.0288,0.0,34.9,1111122 
TCOON,ioos:station:TCOON:148:1,2013-03-10T09:00:00Z,27.9799,-97.0288,0.0,34.8,1111122 
TCOON,ioos:station:TCOON:148:1,2013-03-10T10:00:00Z,27.9799,-97.0288,0.0,34.9,1111122 
TCOON,ioos:station:TCOON:148:1,2013-03-10T11:00:00Z,27.9799,-97.0288,0.0,35.0,1111122 
TCOON,ioos:station:TCOON:148:1,2013-03-10T12:00:00Z,27.9799,-97.0288,0.0,35.0,1111122 
TCOON,ioos:station:TCOON:148:1,2013-03-10T13:00:00Z,27.9799,-97.0288,0.0,35.0,1111122 
TCOON,ioos:station:TCOON:148:1,2013-03-10T14:00:00Z,27.9799,-97.0288,0.0,35.0,1111122 
TCOON,ioos:station:TCOON:148:1,2013-03-10T15:00:00Z,27.9799,-97.0288,0.0,34.5,1111122 
TCOON,ioos:station:TCOON:148:1,2013-03-10T16:00:00Z,27.9799,-97.0288,0.0,34.5,1111122 
TCOON,ioos:station:TCOON:148:1,2013-03-10T17:00:00Z,27.9799,-97.0288,0.0,34.5,1111122 
TCOON,ioos:station:TCOON:148:1,2013-03-10T18:00:00Z,27.9799,-97.0288,0.0,34.4,1111122 
TCOON,ioos:station:TCOON:148:1,2013-03-10T19:00:00Z,27.9799,-97.0288,0.0,34.4,1111122 
TCOON,ioos:station:TCOON:148:1,2013-03-10T20:00:00Z,27.9799,-97.0288,0.0,34.5,1111122 
TCOON,ioos:station:TCOON:148:1,2013-03-10T21:00:00Z,27.9799,-97.0288,0.0,34.4,1111122 
TCOON,ioos:station:TCOON:148:1,2013-03-10T22:00:00Z,27.9799,-97.0288,0.0,34.4,1111122 
TCOON,ioos:station:TCOON:148:1,2013-03-10T23:00:00Z,27.9799,-97.0288,0.0,34.4,1111122 
TCOON,ioos:station:TCOON:148:1,2013-03-11T00:00:00Z,27.9799,-97.0288,0.0,34.4,1111122 
TCOON,ioos:station:TCOON:148:1,2013-03-11T01:00:00Z,27.9799,-97.0288,0.0,34.4,1111122 
TCOON,ioos:station:TCOON:148:1,2013-03-11T02:00:00Z,27.9799,-97.0288,0.0,34.4,1111122 
TCOON,ioos:station:TCOON:148:1,2013-03-11T03:00:00Z,27.9799,-97.0288,0.0,34.4,1111122 
TCOON,ioos:station:TCOON:148:1,2013-03-11T04:00:00Z,27.9799,-97.0288,0.0,34.4,1111122 
TCOON,ioos:station:TCOON:148:1,2013-03-11T05:00:00Z,27.9799,-97.0288,0.0,34.3,1111122 
TCOON,ioos:station:TCOON:148:1,2013-03-11T06:00:00Z,27.9799,-97.0288,0.0,34.1,1111122 
TCOON,ioos:station:TCOON:148:1,2013-03-11T07:00:00Z,27.9799,-97.0288,0.0,34.0,1111122 
TCOON,ioos:station:TCOON:148:1,2013-03-11T08:00:00Z,27.9799,-97.0288,0.0,33.7,1111122 
TCOON,ioos:station:TCOON:148:1,2013-03-11T09:00:00Z,27.9799,-97.0288,0.0,33.6,1111122 
TCOON,ioos:station:TCOON:148:1,2013-03-11T10:00:00Z,27.9799,-97.0288,0.0,33.6,1111122 
TCOON,ioos:station:TCOON:148:1,2013-03-11T11:00:00Z,27.9799,-97.0288,0.0,33.7,1111122 
TCOON,ioos:station:TCOON:148:1,2013-03-11T12:00:00Z,27.9799,-97.0288,0.0,33.8,1111122 
TCOON,ioos:station:TCOON:148:1,2013-03-11T13:00:00Z,27.9799,-97.0288,0.0,33.9,1111122 
TCOON,ioos:station:TCOON:148:1,2013-03-11T14:00:00Z,27.9799,-97.0288,0.0,33.7,1111122 
TCOON,ioos:station:TCOON:148:1,2013-03-11T15:00:00Z,27.9799,-97.0288,0.0,33.7,1111122 
TCOON,ioos:station:TCOON:148:1,2013-03-11T16:00:00Z,27.9799,-97.0288,0.0,33.5,1111122 
TCOON,ioos:station:TCOON:148:1,2013-03-11T17:00:00Z,27.9799,-97.0288,0.0,33.6,1111122 
TCOON,ioos:station:TCOON:148:1,2013-03-11T18:00:00Z,27.9799,-97.0288,0.0,33.5,1111122 
TCOON,ioos:station:TCOON:148:1,2013-03-11T19:00:00Z,27.9799,-97.0288,0.0,33.3,1111122 
TCOON,ioos:station:TCOON:148:1,2013-03-11T20:00:00Z,27.9799,-97.0288,0.0,33.3,1111122 
TCOON,ioos:station:TCOON:148:1,2013-03-11T21:00:00Z,27.9799,-97.0288,0.0,33.3,1111122 
TCOON,ioos:station:TCOON:148:1,2013-03-11T22:00:00Z,27.9799,-97.0288,0.0,33.2,1111122 
TCOON,ioos:station:TCOON:148:1,2013-03-11T23:00:00Z,27.9799,-97.0288,0.0,33.2,1111122 
TCOON,ioos:station:TCOON:148:1,2013-03-12T00:00:00Z,27.9799,-97.0288,0.0,33.2,1111122 
TCOON,ioos:station:TCOON:148:1,2013-03-12T01:00:00Z,27.9799,-97.0288,0.0,33.2,1111122 
TCOON,ioos:station:TCOON:148:1,2013-03-12T02:00:00Z,27.9799,-97.0288,0.0,33.3,1111122 
TCOON,ioos:station:TCOON:148:1,2013-03-12T03:00:00Z,27.9799,-97.0288,0.0,33.5,1111122 
TCOON,ioos:station:TCOON:148:1,2013-03-12T04:00:00Z,27.9799,-97.0288,0.0,33.5,1111122 
TCOON,ioos:station:TCOON:148:1,2013-03-12T05:00:00Z,27.9799,-97.0288,0.0,33.5,1111122 
TCOON,ioos:station:TCOON:148:1,2013-03-12T06:00:00Z,27.9799,-97.0288,0.0,33.3,1111122 
TCOON,ioos:station:TCOON:148:1,2013-03-12T07:00:00Z,27.9799,-97.0288,0.0,33.1,1111122 
TCOON,ioos:station:TCOON:148:1,2013-03-12T08:00:00Z,27.9799,-97.0288,0.0,33.1,1111122 
TCOON,ioos:station:TCOON:148:1,2013-03-12T09:00:00Z,27.9799,-97.0288,0.0,33.2,1111122 